Rangeley, Maine, United States (04970)
Lat: 44.97N, Lon: 70.64W
Wx Zone: MEZ008
Local Info
Past Weather Observations for Today

NOTE: This archive is for the closest National Weather Service station to Rangeley. Information may differ from the station used for current weather conditions.

Click here for Long-term Archive

Time Weather Temperature Dewpoint Humidity Pressure Winds Precip Visibility
15:52
Overcast
Light Snow
10°F / -12°C 3°F / -16°C 72% 29.65 in
(1004 mb)
N 11.5 mph
(N 19 kph)
0.00 in
(0.00 mm)
1 1/4SM
15:33
Overcast
Light Snow
10°F / -12°C 3°F / -16°C 72% 29.65 in
(1004 mb)
NNW 11.5 mph
(NNW 19 kph)
0.00 in
(0.00 mm)
1 1/2SM
14:52
Obscured
Light Snow
12°F / -11°C 3°F / -16°C 67% 29.65 in
(1004 mb)
N 10.4 mph
(N 17 kph)
0.00 in
(0.00 mm)
1SM
14:39
Obscured
Light Snow
12°F / -11°C 5°F / -15°C 73% 29.65 in
(1004 mb)
N 12.7 mph
(N 20 kph)
0.00 in
(0.00 mm)
1SM
13:52
Obscured
Light Snow
12°F / -11°C 7°F / -14°C 79% 29.65 in
(1004 mb)
N 12.7 mph
(N 20 kph)
0.00 in
(0.00 mm)
3/4SM
13:41
Obscured
Light Snow
12°F / -11°C 7°F / -14°C 79% 29.65 in
(1004 mb)
N 10.4 mph
(N 17 kph)
0.00 in
(0.00 mm)
3/4SM
13:22
Overcast
Light Snow
12°F / -11°C 5°F / -15°C 73% 29.65 in
(1004 mb)
N 15 mph
(N 24 kph)
0.00 in
(0.00 mm)
3/4SM
13:06
Overcast
Light Snow
12°F / -11°C 3°F / -16°C 67% 29.65 in
(1004 mb)
N 11.5 mph
(N 19 kph)
0.00 in
(0.00 mm)
1 1/4SM
12:52
Overcast
Light Snow
10°F / -12°C 3°F / -16°C 72% 29.65 in
(1004 mb)
N 9.2 mph
(N 15 kph)
0.01 in
(0.25 mm)
3/4SM
12:44
Overcast
Light Snow
10°F / -12°C 3°F / -16°C 72% 29.68 in
(1005 mb)
N 6.9 mph
(N 11 kph)
0.01 in
(0.25 mm)
3/4SM
12:14
Obscured
Snow
10°F / -12°C 3°F / -16°C 72% 29.68 in
(1005 mb)
N 11.5 mph
(N 19 kph)
0.00 in
(0.00 mm)
1/2SM
11:52
Overcast
Light Snow
10°F / -12°C 3°F / -16°C 72% 29.71 in
(1006 mb)
N 9.2 mph
(N 15 kph)
0.01 in
(0.25 mm)
3/4SM
11:44
Overcast
Light Snow
10°F / -12°C 3°F / -16°C 72% 29.71 in
(1006 mb)
N 10.4 mph
(N 17 kph)
0.01 in
(0.25 mm)
1SM
11:29
Obscured
Snow
10°F / -12°C 3°F / -16°C 72% 29.71 in
(1006 mb)
NNW 12.7 mph
(NNW 20 kph)
0.01 in
(0.25 mm)
1/2SM
10:52
Obscured
Heavy Snow
10°F / -12°C 3°F / -16°C 72% 29.74 in
(1007 mb)
NNW 12.7 mph
(NNW 20 kph)
0.02 in
(0.51 mm)
1/4SM
10:04
Obscured
Heavy Snow
10°F / -12°C 1°F / -17°C 67% 29.77 in
(1008 mb)
N 18.4 mph
(N 30 kph)
0.01 in
(0.25 mm)
1/4SM
09:52
Obscured
Snow
9°F / -13°C 1°F / -17°C 72% 29.77 in
(1008 mb)
N 11.5 mph
(N 19 kph)
0.01 in
(0.25 mm)
1/2SM
09:47
Obscured
Snow
9°F / -13°C 1°F / -17°C 72% 29.77 in
(1008 mb)
N 6.9 mph
(N 11 kph)
0.01 in
(0.25 mm)
1/2SM
08:52
Overcast
Light Snow
9°F / -13°C 1°F / -17°C 72% 29.8 in
(1009 mb)
N 11.5 mph
(N 19 kph)
0.01 in
(0.25 mm)
3/4SM
08:17
Overcast
Light Snow
9°F / -13°C °F / -18°C 66% 29.8 in
(1009 mb)
Variable 5.8 mph
(Variable 9 kph)
0.01 in
(0.25 mm)
1 1/4SM
08:02
Obscured
Light Snow
9°F / -13°C °F / -18°C 66% 29.83 in
(1010 mb)
Variable 5.8 mph
(Variable 9 kph)
0.01 in
(0.25 mm)
3/4SM
07:52
Overcast
Light Snow
7°F / -14°C °F / -18°C 72% 29.83 in
(1010 mb)
Variable 3.5 mph
(Variable 6 kph)
0.00 in
(0.00 mm)
1 1/4SM
07:24
Overcast
Light Snow
9°F / -13°C -2°F / -19°C 61% 29.83 in
(1010 mb)
NNW 5.8 mph
(NNW 9 kph)
0.00 in
(0.00 mm)
1 3/4SM
07:01
Overcast
Light Snow
9°F / -13°C -6°F / -21°C 51% 29.83 in
(1010 mb)
N 9.2 mph
(N 15 kph)
0.00 in
(0.00 mm)
2 1/2SM
06:52
Overcast
Light Snow
9°F / -13°C -8°F / -22°C 47% 29.83 in
(1010 mb)
N 9.2 mph
(N 15 kph)
0.00 in
(0.00 mm)
3SM
06:49
Overcast
Light Snow
9°F / -13°C -8°F / -22°C 47% 29.83 in
(1010 mb)
N 5.8 mph
(N 9 kph)
0.00 in
(0.00 mm)
4SM
05:52
Overcast
10°F / -12°C -9°F / -23°C 40% 29.86 in
(1011 mb)
N 8.1 mph
(N 13 kph)
- 10SM
04:52
Overcast
10°F / -12°C -8°F / -22°C 44% 29.89 in
(1012 mb)
N 11.5 mph
(N 19 kph)
- 10SM
03:52
Overcast
10°F / -12°C -6°F / -21°C 47% 29.89 in
(1012 mb)
N 9.2 mph
(N 15 kph)
- 10SM
02:52
Overcast
10°F / -12°C -8°F / -22°C 44% 29.92 in
(1013 mb)
NNW 9.2 mph
(NNW 15 kph)
- 10SM
01:52
Overcast
12°F / -11°C -11°F / -24°C 34% 29.95 in
(1014 mb)
NE 8.1 mph
(NE 13 kph)
- 10SM
00:52
Partly Cloudy
12°F / -11°C -11°F / -24°C 34% 29.98 in
(1015 mb)
NNE 8.1 mph
(NNE 13 kph)
- 10SM
Time Weather Temperature Dewpoint Humidity Pressure Winds Precip Visibility


Weather for websites

WeatherForYou.com, LLC is not responsible for any damages or problems caused by this service. Current weather conditions are obtained from the closest station including government and personal stations which may have varying degrees of accuracy. Weather forecasts are derived from the NOAA NDFD. Like all things, this site belongs to Jesus Christ... He just trusts me to maintain it. If you have any questions or comments email webmaster@weatherforyou.com

Copyright © 2015, WeatherForYou.com LLC. All rights reserved.